ASIASAT 9

Last updated on Thu Nov 21 2024 00:02:43 GMT+0000 (Coordinated Universal Time)

1 42942U 17057A 24324.96219192 -.00000358 00000+0 00000+0 0 9990 2 42942 0.0133 306.5865 0002414 291.1335 290.2820 1.00271210 26104
UTC large
Height (km)
Speed (km/s)
/
Latitude / Longitude
Inclination (degrees)
Orbital Period (minutes)
Azimuth
Elevation
Range (km)
Doppler Factor

Next 0 passes for location: London (51.5072 / 0.1276)

Sorry there are no passes over London.